Tracking 34138 objects as of 15-May-2026
HD Live streaming from Space Station
objects crossing your sky now

STARLINK-37095

Track STARLINK-37095 now!
10-day predictions
STARLINK-37095 is classified as:


NORAD ID: 68237
Int'l Code: 2026-054F
Perigee: 429.3 km
Apogee: 431.0 km
Inclination: 53.2 °
Period: 93.0 minutes
Semi major axis: 6801 km
RCS: Unknown
Launch date: March 17, 2026
Source: United States (US)
Launch site: AIR FORCE EASTERN TEST RANGE (AFETR)
Your satellite tracking list
Your tracking list is empty




NASA's NSSDC Master Catalog

Two Line Element Set (TLE):
1 68237U 26054F   26135.25002315 -.02186239  00000-0 -46855-1 0  9990
2 68237  53.1600 341.7258 0001215  79.0379   2.2783 15.47852556  5901
Source of the keplerian elements: AFSPC